Aérodrome :
LOGIN :

S'inscrire | Disclaimer

   EN    FR    IT 

 










Légende :    VFR   VFR Marginal   IFR   IFR Intensif   IFR Très Intensif
Visi : 
Plafond : 
>= 8 km
>= 3000ft
5 à 8 km
1000 à 3000 ft
1500m à 5 km
500 à 1000 ft
800 à 1500m
200 à 500 ft
< 800m
< 200 ft
Symboles :   Orages  Brouillard  Fortes neiges  Fortes précipitations  Vent > 20 kt
SIGMETs :   Divers  Orages  Givrage  Turbulence  Onde Orograph.  Cendres Volcan.







- Altitude de l'aérodrome : 239 ft
- Code IATA : VRN


LIPX - Villafranca Int. Verona

DERNIER METAR :
  • 221550Z 06014KT 040V100 9999 FEW040 SCT090 18/07 Q1010

METARs EXPIRÉS :
  • 221520Z 07011KT 9999 SCT090 18/08 Q1010
  • 221450Z 07013KT 9999 FEW040 SCT090 19/07 Q1010
  • 221420Z 07015KT 9999 FEW030 SCT050 19/08 Q1011
  • 221350Z 08011KT 060V120 9999 FEW030 SCT050 20/08 Q1011
  • 221320Z 09011KT 050V120 9999 FEW020 SCT040 20/09 Q1011
  • 221250Z 08013KT 060V120 9999 FEW020 SCT040 20/08 Q1012

TAF TAF LIPX
Valide du 22 à 15h jusqu'au 23 à 00h UTC


221400Z 2215/2224 09015KT 9999 BKN070
BECMG 2222/2224 RA BKN012 BKN050
Pas de NOTAMs connus pour ce terrain.



MET'MAP, la Météo Aéronautique d'un coup d'oeil ! - Copyright ORBIFLY Décembre 2007 - Disclaimer

ORBIFLY MET'MAP TEAM :

Programmation & Développement : Alexandra Zaïnal
Conception & Développement : Baudouin d'Aumeries
Co-Programmation & Développement : Marc-Olivier Méhu
Soutien technique & logistique : Manuel Goepfert

Contact : metmap@orbifly.com




SOURCES & CREDITS :

   NOAA